Location: Moscow Pond
(43.6842°N, 73.2366°W)
Time: 21:18:46
(UTC+00:00)

Cosmos 1809 Rocket - Pass Details

Date: 08 November 2025
Orbit: 941 x 963 km, 82.5° (Epoch: 10 December)

Event Time Altitude Azimuth Distance (km) Brightness Sun altitude
Rises 09:26:10 0° 197° (SSW) 3,611 7.3 -24.1°
Reaches altitude 10° 09:28:41 10° 200° (SSW) 2,666 6.6 -23.6°
Maximum altitude 09:34:43 63° 281° (W) 1,055 4.3 -22.6°
Drops below altitude 10° 09:40:46 10° 2° (N) 2,671 6.8 -21.5°
Sets 09:43:18 0° 6° (N) 3,617 7.5 -21.0°
